Indianapolis, IN

5:07 AM EDT on April 24, 2017 (GMT -0400)
Indianapolis International

Weather History for KIND - May, 2013

Change the Weather History Date:

Thursday, May 16, 2013

  Actual Average Record
Temperature  
Mean Temperature 72 °F 63 °F  
Max Temperature 79 °F 73 °F 90 °F (1900)
Min Temperature 65 °F 53 °F 32 °F (1997)
Degree Days  
Heating Degree Days 0 4  
Month to date heating degree days 69 95  
Since 1 July heating degree days 5362 5317  
Cooling Degree Days 7 2  
Month to date cooling degree days 36 22  
Year to date cooling degree days 45 37  
Growing Degree Days 22 (Base 50)    
Moisture  
Dew Point 62 °F    
Average Humidity 74    
Maximum Humidity 93    
Minimum Humidity 54    
Precipitation  
Precipitation T in 0.17 in 1.60 in (1912)
Month to date precipitation 1.93 2.61  
Year to date precipitation 20.26 14.96  
Snow  
Snow 0.00 in 0.00 in T in (2014)
Month to date snowfall 0.0 0.0  
Since 1 July snowfall 34.5 25.9  
Snow Depth 0.00 in    
Sea Level Pressure  
Sea Level Pressure 29.89 in    
Wind  
Wind Speed 8 mph (SW)    
Max Wind Speed 22 mph    
Max Gust Speed 28 mph    
Visibility 10 miles    
Events Rain , Thunderstorm    
T = Trace of Precipitation, MM = Missing Value Source: NWS Daily Summary

Daily Weather History Graph

Daily Weather History Graph

Search for Another Location

Airport or City:

Trip Planner

Search our weather history database for the weather conditions in past years. The results will help you decide how hot, cold, wet, or windy it might be!

Date:

Astronomy

May. 16, 2013 Rise Set
Actual Time 6:29 AM EDT 8:54 PM EDT
Civil Twilight 5:58 AM EDT 9:24 PM EDT
Nautical Twilight 5:21 AM EDT 10:02 PM EDT
Astronomical Twilight 4:39 AM EDT 10:44 PM EDT
Moon 12:01 PM EDT (5/16) 1:14 AM EDT (5/16)
Length of Visible Light 15h 25m
Length of Day
14h 24m
Waxing Crescent, 35% of the Moon is Illuminated
May 16
Waxing Crescent
May 18
First Quarter
May 25
Full
May 31
Last Quarter
Jun 8
New

Hourly Weather History & Observations

Time (EDT) Temp. Dew Point Humidity Pressure Visibility Wind Dir Wind Speed Gust Speed Precip Events Conditions
12:54 AM 70.0 °F 62.1 °F 76% 29.84 in 10.0 mi SW 9.2 mph - 0.03 in Rain , Thunderstorm Light Thunderstorms and Rain
1:16 AM 69.8 °F 62.6 °F 78% 29.86 in 10.0 mi WSW 8.1 mph - 0.00 in   Overcast
1:54 AM 69.1 °F 62.1 °F 78% 29.83 in 10.0 mi SSW 6.9 mph - 0.00 in   Overcast
2:54 AM 66.9 °F 63.0 °F 87% 29.83 in 10.0 mi WSW 6.9 mph - 0.00 in   Overcast
3:54 AM 66.0 °F 63.0 °F 90% 29.83 in 9.0 mi SW 5.8 mph - N/A   Overcast
4:54 AM 66.0 °F 62.1 °F 87% 29.82 in 10.0 mi SW 5.8 mph - N/A   Overcast
5:54 AM 64.9 °F 62.1 °F 90% 29.83 in 10.0 mi WSW 5.8 mph - N/A   Overcast
6:54 AM 64.9 °F 62.1 °F 90% 29.85 in 8.0 mi WSW 6.9 mph - N/A   Overcast
7:54 AM 66.0 °F 62.1 °F 87% 29.86 in 8.0 mi WSW 4.6 mph - N/A   Mostly Cloudy
8:54 AM 70.0 °F 64.0 °F 81% 29.88 in 9.0 mi SW 6.9 mph - N/A   Mostly Cloudy
9:54 AM 71.1 °F 64.0 °F 78% 29.90 in 9.0 mi SW 6.9 mph - N/A   Mostly Cloudy
10:54 AM 73.0 °F 64.9 °F 76% 29.91 in 9.0 mi WSW 5.8 mph - N/A   Mostly Cloudy
11:54 AM 75.0 °F 64.0 °F 69% 29.92 in 9.0 mi WSW 4.6 mph - N/A   Mostly Cloudy
12:54 PM 78.1 °F 64.9 °F 64% 29.94 in 10.0 mi SW 12.7 mph - N/A   Mostly Cloudy
1:54 PM 75.0 °F 62.1 °F 64% 29.93 in 10.0 mi SW 13.8 mph - N/A   Mostly Cloudy
2:54 PM 75.2 °F 59.0 °F 57% 29.93 in 10.0 mi SW 13.8 mph - N/A   Scattered Clouds
3:54 PM 75.9 °F 60.1 °F 58% 29.91 in 10.0 mi WSW 6.9 mph - N/A   Mostly Cloudy
4:54 PM 79.0 °F 61.0 °F 54% 29.88 in 9.0 mi Variable 6.9 mph - N/A   Mostly Cloudy
5:54 PM 78.8 °F 60.8 °F 54% 29.90 in 10.0 mi SW 10.4 mph - N/A   Mostly Cloudy
6:54 PM 77.0 °F 63.0 °F 62% 29.88 in 10.0 mi SSW 8.1 mph - N/A   Mostly Cloudy
7:54 PM 73.9 °F 62.1 °F 66% 29.89 in 10.0 mi SSW 10.4 mph - N/A   Mostly Cloudy
8:54 PM 72.0 °F 62.1 °F 71% 29.91 in 10.0 mi SSW 9.2 mph - N/A   Mostly Cloudy
9:54 PM 69.1 °F 63.0 °F 81% 29.93 in 10.0 mi SSW 9.2 mph - N/A   Mostly Cloudy
10:54 PM 66.9 °F 63.0 °F 87% 29.95 in 10.0 mi SSW 8.1 mph - N/A   Mostly Cloudy
11:54 PM 66.0 °F 62.1 °F 87% 29.96 in 10.0 mi WSW 3.5 mph - N/A   Mostly Cloudy